Time,TemperatureF,DewpointF,PressureIn,WindDirection,WindDirectionDegrees,WindSpeedMPH,WindSpeedGustMPH,Humidity,HourlyPrecipIn,Conditions,Clouds,dailyrainin,SoftwareType,DateUTC
2013-01-24 00:02:00,48.0,40.0,30.22,SW,222,2.0,3.0,75,0.00,,,0.00,,2013-01-24 06:02:00,
2013-01-24 00:12:00,48.0,40.0,30.22,SW,222,2.0,3.0,75,0.00,,,0.00,,2013-01-24 06:12:00,
2013-01-24 00:22:00,48.0,40.0,30.21,SW,221,2.0,3.0,75,0.00,,,0.00,,2013-01-24 06:22:00,
2013-01-24 00:32:00,48.0,41.0,30.21,SW,221,2.0,3.0,76,0.00,,,0.00,,2013-01-24 06:32:00,
2013-01-24 00:42:00,48.0,41.0,30.21,SW,221,2.0,3.0,76,0.00,,,0.00,,2013-01-24 06:42:00,
2013-01-24 00:52:00,48.0,40.0,30.21,SW,221,2.0,3.0,75,0.00,,,0.00,,2013-01-24 06:52:00,
2013-01-24 01:02:00,48.0,41.0,30.21,NW,313,1.0,3.0,76,0.00,,,0.00,,2013-01-24 07:02:00,
2013-01-24 01:12:00,48.0,41.0,30.21,NW,313,1.0,3.0,76,0.00,,,0.00,,2013-01-24 07:12:00,
2013-01-24 01:22:00,48.0,41.0,30.21,SW,229,1.0,3.0,76,0.00,,,0.00,,2013-01-24 07:22:00,
2013-01-24 01:33:00,49.0,41.0,30.22,WNW,300,1.0,3.0,75,0.00,,,0.00,,2013-01-24 07:33:00,
2013-01-24 01:42:00,49.0,41.0,30.22,WNW,300,1.0,3.0,75,0.00,,,0.00,,2013-01-24 07:42:00,
2013-01-24 01:52:00,48.0,41.0,30.21,North,0,2.0,4.0,76,0.00,,,0.00,,2013-01-24 07:52:00,
2013-01-24 02:02:00,48.0,41.0,30.20,North,0,2.0,3.0,77,0.00,,,0.00,,2013-01-24 08:02:00,
2013-01-24 02:12:00,48.0,41.0,30.20,North,0,2.0,3.0,77,0.00,,,0.00,,2013-01-24 08:12:00,
2013-01-24 02:22:00,48.0,41.0,30.21,NW,319,2.0,3.0,77,0.00,,,0.00,,2013-01-24 08:22:00,
2013-01-24 02:33:00,46.0,40.0,30.21,WNW,300,3.0,3.0,80,0.00,,,0.00,,2013-01-24 08:33:00,
2013-01-24 02:42:00,46.0,40.0,30.21,WNW,300,3.0,3.0,80,0.00,,,0.00,,2013-01-24 08:42:00,
2013-01-24 02:52:00,46.0,40.0,30.21,WNW,300,3.0,3.0,80,0.00,,,0.00,,2013-01-24 08:52:00,
2013-01-24 03:03:00,47.0,41.0,30.22,WNW,287,3.0,4.0,79,0.00,,,0.00,,2013-01-24 09:03:00,
2013-01-24 03:12:00,47.0,41.0,30.22,WNW,287,3.0,4.0,79,0.00,,,0.00,,2013-01-24 09:12:00,
2013-01-24 03:23:00,47.0,41.0,30.22,WNW,286,2.0,4.0,79,0.00,,,0.00,,2013-01-24 09:23:00,
2013-01-24 03:33:00,47.0,41.0,30.21,WNW,286,0.0,3.0,80,0.00,,,0.00,,2013-01-24 09:33:00,
2013-01-24 03:42:00,47.0,41.0,30.21,WNW,286,0.0,3.0,80,0.00,,,0.00,,2013-01-24 09:42:00,
2013-01-24 03:52:00,47.0,41.0,30.22,North,0,3.0,7.0,80,0.00,,,0.00,,2013-01-24 09:52:00,
2013-01-24 04:03:00,47.0,41.0,30.22,North,351,5.0,8.0,78,0.00,,,0.00,,2013-01-24 10:03:00,
2013-01-24 04:12:00,47.0,41.0,30.22,North,351,5.0,8.0,78,0.00,,,0.00,,2013-01-24 10:12:00,
2013-01-24 04:22:00,47.0,41.0,30.22,North,357,5.0,9.0,78,0.00,,,0.00,,2013-01-24 10:22:00,
2013-01-24 04:33:00,46.0,40.0,30.22,North,358,4.0,8.0,78,0.00,,,0.00,,2013-01-24 10:33:00,
2013-01-24 04:43:00,46.0,40.0,30.22,North,358,4.0,8.0,78,0.00,,,0.00,,2013-01-24 10:43:00,
2013-01-24 04:52:00,46.0,40.0,30.22,NNE,15,7.0,13.0,78,0.00,,,0.00,,2013-01-24 10:52:00,
2013-01-24 05:02:00,46.0,40.0,30.24,North,0,3.0,13.0,79,0.00,,,0.00,,2013-01-24 11:02:00,
2013-01-24 05:12:00,46.0,40.0,30.24,North,0,3.0,13.0,79,0.00,,,0.00,,2013-01-24 11:12:00,
2013-01-24 05:22:00,46.0,40.0,30.25,ENE,70,9.0,11.0,79,0.00,,,0.00,,2013-01-24 11:22:00,
2013-01-24 05:33:00,44.0,37.0,30.26,North,352,11.0,23.0,77,0.00,,,0.00,,2013-01-24 11:33:00,
2013-01-24 05:43:00,44.0,37.0,30.26,North,352,11.0,23.0,77,0.00,,,0.00,,2013-01-24 11:43:00,
2013-01-24 05:52:00,44.0,38.0,30.25,NNE,12,7.0,19.0,78,0.00,,,0.00,,2013-01-24 11:52:00,
2013-01-24 06:03:00,43.0,38.0,30.27,North,357,6.0,17.0,81,0.00,,,0.00,,2013-01-24 12:03:00,
2013-01-24 06:12:00,43.0,38.0,30.27,North,357,6.0,17.0,81,0.00,,,0.00,,2013-01-24 12:12:00,
2013-01-24 06:22:00,42.0,37.0,30.28,NNE,25,8.0,14.0,81,0.00,,,0.00,,2013-01-24 12:22:00,
2013-01-24 06:33:00,41.0,34.0,30.28,ENE,60,7.0,17.0,76,0.00,,,0.00,,2013-01-24 12:33:00,
2013-01-24 06:42:00,41.0,34.0,30.28,ENE,60,7.0,17.0,76,0.00,,,0.00,,2013-01-24 12:42:00,
2013-01-24 06:53:00,40.0,33.0,30.28,NNE,16,4.0,16.0,75,0.00,,,0.00,,2013-01-24 12:53:00,
2013-01-24 07:03:00,39.0,31.0,30.29,NE,40,7.0,15.0,72,0.00,,,0.00,,2013-01-24 13:03:00,
2013-01-24 07:12:00,39.0,31.0,30.29,NE,40,7.0,15.0,72,0.00,,,0.00,,2013-01-24 13:12:00,
2013-01-24 07:23:00,38.0,30.0,30.30,North,5,7.0,17.0,73,0.00,,,0.00,,2013-01-24 13:23:00,
2013-01-24 07:33:00,38.0,30.0,30.31,NNE,14,9.0,13.0,74,0.00,,,0.00,,2013-01-24 13:33:00,
2013-01-24 07:42:00,38.0,30.0,30.31,NNE,14,9.0,13.0,74,0.00,,,0.00,,2013-01-24 13:42:00,
2013-01-24 07:52:00,38.0,31.0,30.32,NNE,28,13.0,16.0,75,0.00,,,0.00,,2013-01-24 13:52:00,
2013-01-24 08:02:00,38.0,30.0,30.32,North,4,5.0,15.0,72,0.00,,,0.00,,2013-01-24 14:02:00,
2013-01-24 08:12:00,38.0,30.0,30.32,North,4,5.0,15.0,72,0.00,,,0.00,,2013-01-24 14:12:00,
2013-01-24 08:23:00,37.0,28.0,30.35,North,359,10.0,19.0,71,0.00,,,0.00,,2013-01-24 14:23:00,
2013-01-24 08:33:00,37.0,26.0,30.35,NE,35,10.0,16.0,64,0.00,,,0.00,,2013-01-24 14:33:00,
2013-01-24 08:43:00,37.0,26.0,30.35,NE,35,10.0,16.0,64,0.00,,,0.00,,2013-01-24 14:43:00,
2013-01-24 08:53:00,37.0,24.0,30.36,North,0,6.0,21.0,59,0.00,,,0.00,,2013-01-24 14:53:00,
2013-01-24 09:03:00,37.0,24.0,30.37,North,8,8.0,21.0,59,0.00,,,0.00,,2013-01-24 15:03:00,
2013-01-24 09:12:00,37.0,24.0,30.37,North,8,8.0,21.0,59,0.00,,,0.00,,2013-01-24 15:12:00,
2013-01-24 09:23:00,36.0,23.0,30.37,NE,47,7.0,20.0,60,0.00,,,0.00,,2013-01-24 15:23:00,
2013-01-24 09:33:00,36.0,23.0,30.37,NE,47,7.0,20.0,60,0.00,,,0.00,,2013-01-24 15:33:00,
2013-01-24 09:43:00,37.0,24.0,30.37,North,0,5.0,17.0,60,0.00,,,0.00,,2013-01-24 15:43:00,
2013-01-24 09:52:00,37.0,24.0,30.38,NE,52,12.0,12.0,58,0.00,,,0.00,,2013-01-24 15:52:00,
2013-01-24 10:03:00,37.0,24.0,30.37,NNE,33,3.0,17.0,58,0.00,,,0.00,,2013-01-24 16:03:00,
2013-01-24 10:12:00,37.0,24.0,30.37,NNE,33,3.0,17.0,58,0.00,,,0.00,,2013-01-24 16:12:00,
2013-01-24 10:23:00,37.0,23.0,30.37,NE,40,10.0,17.0,57,0.00,,,0.00,,2013-01-24 16:23:00,
2013-01-24 10:33:00,38.0,23.0,30.38,North,355,4.0,15.0,55,0.00,,,0.00,,2013-01-24 16:33:00,
2013-01-24 10:42:00,38.0,23.0,30.38,North,355,4.0,15.0,55,0.00,,,0.00,,2013-01-24 16:42:00,
2013-01-24 11:02:00,39.0,23.0,30.39,NNE,14,11.0,15.0,53,0.00,,,0.00,,2013-01-24 17:02:00,
2013-01-24 11:12:00,39.0,23.0,30.39,NNE,14,11.0,15.0,53,0.00,,,0.00,,2013-01-24 17:12:00,
2013-01-24 11:22:00,39.0,23.0,30.39,NNE,14,11.0,15.0,53,0.00,,,0.00,,2013-01-24 17:22:00,
2013-01-24 11:32:00,39.0,24.0,30.38,North,359,5.0,15.0,54,0.00,,,0.00,,2013-01-24 17:32:00,
2013-01-24 11:42:00,39.0,24.0,30.38,North,359,5.0,15.0,54,0.00,,,0.00,,2013-01-24 17:42:00,
2013-01-24 11:52:00,40.0,23.0,30.38,North,5,13.0,16.0,50,0.00,,,0.00,,2013-01-24 17:52:00,
2013-01-24 12:02:00,40.0,22.0,30.37,North,0,7.0,18.0,48,0.00,,,0.00,,2013-01-24 18:02:00,
2013-01-24 12:12:00,41.0,22.0,30.37,North,3,6.0,17.0,47,0.00,,,0.00,,2013-01-24 18:12:00,
2013-01-24 12:22:00,41.0,22.0,30.37,North,3,6.0,17.0,47,0.00,,,0.00,,2013-01-24 18:22:00,
2013-01-24 12:33:00,40.0,20.0,30.37,NNE,23,8.0,18.0,44,0.00,,,0.00,,2013-01-24 18:33:00,
2013-01-24 12:42:00,40.0,20.0,30.37,NNE,23,8.0,18.0,44,0.00,,,0.00,,2013-01-24 18:42:00,
2013-01-24 12:52:00,41.0,21.0,30.37,NE,40,10.0,16.0,45,0.00,,,0.00,,2013-01-24 18:52:00,
2013-01-24 13:02:00,41.0,21.0,30.36,NNE,31,12.0,19.0,44,0.00,,,0.00,,2013-01-24 19:02:00,
2013-01-24 13:12:00,41.0,21.0,30.36,NE,47,18.0,18.0,45,0.00,,,0.00,,2013-01-24 19:12:00,
2013-01-24 13:22:00,41.0,21.0,30.36,NE,47,18.0,18.0,45,0.00,,,0.00,,2013-01-24 19:22:00,
2013-01-24 13:33:00,41.0,22.0,30.34,NE,44,7.0,17.0,46,0.00,,,0.00,,2013-01-24 19:33:00,
2013-01-24 13:42:00,42.0,23.0,30.33,North,359,10.0,16.0,46,0.00,,,0.00,,2013-01-24 19:42:00,
2013-01-24 13:52:00,42.0,23.0,30.33,North,359,10.0,16.0,46,0.00,,,0.00,,2013-01-24 19:52:00,
2013-01-24 14:02:00,42.0,22.0,30.34,North,349,3.0,10.0,45,0.00,,,0.00,,2013-01-24 20:02:00,
2013-01-24 14:11:00,42.0,22.0,30.34,East,80,4.0,14.0,44,0.00,,,0.00,,2013-01-24 20:11:00,
2013-01-24 14:22:00,42.0,22.0,30.34,East,80,4.0,14.0,44,0.00,,,0.00,,2013-01-24 20:22:00,
2013-01-24 14:32:00,42.0,21.0,30.34,NE,44,3.0,12.0,43,0.00,,,0.00,,2013-01-24 20:32:00,
2013-01-24 14:42:00,43.0,21.0,30.34,North,3,7.0,12.0,41,0.00,,,0.00,,2013-01-24 20:42:00,
2013-01-24 14:52:00,43.0,21.0,30.34,North,3,7.0,12.0,41,0.00,,,0.00,,2013-01-24 20:52:00,
2013-01-24 15:02:00,45.0,22.0,30.34,North,8,8.0,11.0,40,0.00,,,0.00,,2013-01-24 21:02:00,
2013-01-24 15:12:00,44.0,21.0,30.34,North,1,4.0,11.0,40,0.00,,,0.00,,2013-01-24 21:12:00,
2013-01-24 15:22:00,44.0,21.0,30.34,North,1,4.0,11.0,40,0.00,,,0.00,,2013-01-24 21:22:00,
2013-01-24 15:33:00,43.0,21.0,30.33,NNE,22,7.0,11.0,41,0.00,,,0.00,,2013-01-24 21:33:00,
2013-01-24 15:42:00,43.0,21.0,30.33,NNE,22,7.0,11.0,41,0.00,,,0.00,,2013-01-24 21:42:00,
2013-01-24 15:52:00,44.0,21.0,30.33,North,6,5.0,10.0,40,0.00,,,0.00,,2013-01-24 21:52:00,
2013-01-24 16:03:00,44.0,23.0,30.34,NNE,23,11.0,12.0,43,0.00,,,0.00,,2013-01-24 22:03:00,
2013-01-24 16:12:00,43.0,22.0,30.34,NE,35,8.0,14.0,43,0.00,,,0.00,,2013-01-24 22:12:00,
2013-01-24 16:22:00,43.0,22.0,30.34,NE,35,8.0,14.0,43,0.00,,,0.00,,2013-01-24 22:22:00,
2013-01-24 16:32:00,42.0,22.0,30.33,ENE,59,2.0,12.0,45,0.00,,,0.00,,2013-01-24 22:32:00,
2013-01-24 16:42:00,42.0,22.0,30.33,ENE,59,2.0,12.0,45,0.00,,,0.00,,2013-01-24 22:42:00,
2013-01-24 16:52:00,41.0,22.0,30.33,ENE,64,2.0,14.0,46,0.00,,,0.00,,2013-01-24 22:52:00,
2013-01-24 17:02:00,41.0,22.0,30.34,NNE,20,6.0,16.0,47,0.00,,,0.00,,2013-01-24 23:02:00,
2013-01-24 17:12:00,41.0,22.0,30.34,NNE,20,6.0,16.0,47,0.00,,,0.00,,2013-01-24 23:12:00,
2013-01-24 17:22:00,40.0,21.0,30.32,NE,43,12.0,18.0,47,0.00,,,0.00,,2013-01-24 23:22:00,
2013-01-24 17:32:00,40.0,22.0,30.33,North,7,6.0,11.0,48,0.00,,,0.00,,2013-01-24 23:32:00,
2013-01-24 17:42:00,40.0,22.0,30.33,North,7,6.0,11.0,48,0.00,,,0.00,,2013-01-24 23:42:00,
2013-01-24 17:52:00,39.0,21.0,30.33,NNE,23,3.0,13.0,48,0.00,,,0.00,,2013-01-24 23:52:00,
2013-01-24 18:02:00,39.0,21.0,30.33,NNE,23,3.0,13.0,48,0.00,,,0.00,,2013-01-25 00:02:00,
2013-01-24 18:12:00,39.0,21.0,30.33,NNE,23,3.0,13.0,48,0.00,,,0.00,,2013-01-25 00:12:00,
2013-01-24 18:22:00,38.0,21.0,30.32,NNE,29,6.0,14.0,49,0.00,,,0.00,,2013-01-25 00:22:00,
2013-01-24 18:32:00,38.0,21.0,30.32,North,6,9.0,13.0,49,0.00,,,0.00,,2013-01-25 00:32:00,
2013-01-24 18:42:00,38.0,21.0,30.32,North,6,9.0,13.0,49,0.00,,,0.00,,2013-01-25 00:42:00,
2013-01-24 18:52:00,37.0,19.0,30.33,NNE,30,12.0,15.0,48,0.00,,,0.00,,2013-01-25 00:52:00,
2013-01-24 19:01:00,37.0,18.0,30.33,NNE,18,10.0,17.0,46,0.00,,,0.00,,2013-01-25 01:01:00,
2013-01-24 19:12:00,37.0,19.0,30.33,NNE,32,6.0,16.0,47,0.00,,,0.00,,2013-01-25 01:12:00,
2013-01-24 19:21:00,37.0,19.0,30.33,NNE,32,6.0,16.0,47,0.00,,,0.00,,2013-01-25 01:21:00,
2013-01-24 19:32:00,36.0,17.0,30.32,NE,50,6.0,16.0,46,0.00,,,0.00,,2013-01-25 01:32:00,
2013-01-24 19:42:00,36.0,17.0,30.32,NE,50,6.0,16.0,46,0.00,,,0.00,,2013-01-25 01:42:00,
2013-01-24 19:52:00,36.0,18.0,30.31,East,94,6.0,13.0,47,0.00,,,0.00,,2013-01-25 01:52:00,
2013-01-24 20:02:00,35.0,17.0,30.31,NNE,23,8.0,12.0,48,0.00,,,0.00,,2013-01-25 02:02:00,
2013-01-24 20:11:00,35.0,17.0,30.31,NNE,23,8.0,12.0,48,0.00,,,0.00,,2013-01-25 02:11:00,
2013-01-24 20:22:00,35.0,17.0,30.31,NNE,23,8.0,12.0,48,0.00,,,0.00,,2013-01-25 02:22:00,
2013-01-24 20:32:00,35.0,17.0,30.30,North,4,3.0,8.0,48,0.00,,,0.00,,2013-01-25 02:32:00,
2013-01-24 20:42:00,35.0,17.0,30.30,NNE,18,2.0,7.0,48,0.00,,,0.00,,2013-01-25 02:42:00,
2013-01-24 20:53:00,35.0,17.0,30.30,NNE,18,2.0,7.0,48,0.00,,,0.00,,2013-01-25 02:53:00,
2013-01-24 21:02:00,36.0,18.0,30.30,North,0,3.0,6.0,48,0.00,,,0.00,,2013-01-25 03:02:00,
2013-01-24 21:12:00,35.0,18.0,30.30,North,9,3.0,6.0,49,0.00,,,0.00,,2013-01-25 03:12:00,
2013-01-24 21:22:00,35.0,18.0,30.30,North,9,3.0,6.0,49,0.00,,,0.00,,2013-01-25 03:22:00,
2013-01-24 21:33:00,35.0,18.0,30.29,NNE,25,4.0,6.0,50,0.00,,,0.00,,2013-01-25 03:33:00,
2013-01-24 21:41:00,35.0,18.0,30.29,NNE,25,4.0,6.0,50,0.00,,,0.00,,2013-01-25 03:41:00,
2013-01-24 21:52:00,35.0,19.0,30.28,ENE,59,2.0,8.0,51,0.00,,,0.00,,2013-01-25 03:52:00,
2013-01-24 22:02:00,35.0,19.0,30.28,NE,49,5.0,6.0,52,0.00,,,0.00,,2013-01-25 04:02:00,
2013-01-24 22:12:00,36.0,21.0,30.29,NNE,13,3.0,7.0,53,0.00,,,0.00,,2013-01-25 04:12:00,
2013-01-24 22:22:00,36.0,21.0,30.29,NNE,13,3.0,7.0,53,0.00,,,0.00,,2013-01-25 04:22:00,
2013-01-24 22:32:00,36.0,20.0,30.28,ENE,66,3.0,6.0,52,0.00,,,0.00,,2013-01-25 04:32:00,
2013-01-24 22:41:00,36.0,20.0,30.28,ENE,66,3.0,6.0,52,0.00,,,0.00,,2013-01-25 04:41:00,
2013-01-24 22:51:00,36.0,21.0,30.28,ENE,67,2.0,4.0,53,0.00,,,0.00,,2013-01-25 04:51:00,
2013-01-24 23:03:00,37.0,22.0,30.27,ESE,119,4.0,6.0,54,0.00,,,0.00,,2013-01-25 05:03:00,
2013-01-24 23:12:00,38.0,20.0,30.28,ESE,107,5.0,11.0,48,0.00,,,0.00,,2013-01-25 05:12:00,
2013-01-24 23:22:00,38.0,20.0,30.28,ESE,107,5.0,11.0,48,0.00,,,0.00,,2013-01-25 05:22:00,
2013-01-24 23:32:00,39.0,20.0,30.27,NNE,25,3.0,12.0,47,0.00,,,0.00,,2013-01-25 05:32:00,
2013-01-24 23:43:00,39.0,20.0,30.27,NNE,25,3.0,12.0,47,0.00,,,0.00,,2013-01-25 05:43:00,
2013-01-24 23:52:00,39.0,19.0,30.26,East,95,4.0,13.0,45,0.00,,,0.00,,2013-01-25 05:52:00,